Regional Weather Roundup
Issued by NWS

Home | Current Version | Previous Version | Text Only | Print | Product List | Glossary Off
Versions: 1 2 3 4 5 6 7 8 9 10 11 12 13 14 15 16 17 18 19 20 21 22 23 24 25 26 27 28 29 30 31 32 33 34 35 36 37 38 39 40 41 42 43 44 45 46 47 48 49 50

000
ASUS43 KMKX 222200
RWRWI

WISCONSIN REGIONAL WEATHER ROUNDUP
NATIONAL WEATHER SERVICE MILWAUKEE/SULLIVAN WI
400 PM CST MON DEC 22 2014

NOTE: "FAIR" INDICATES FEW OR NO CLOUDS BELOW 12,000 FEET WITH NO
SIGNIFICANT WEATHER AND/OR OBSTRUCTIONS TO VISIBILITY.

WIZ001-002-006>008-014>016-023>028-222300-
NORTHWEST WISCONSIN

CITY           SKY/WX    TMP DP  RH WIND       PRES   REMARKS
SUPERIOR ARPT  DRIZZLE   35  34  96 E6        29.70S WCI  30
ASHLAND        CLOUDY    36  32  85 SE3       29.74R
HAYWARD        CLOUDY    35  32  88 SE6       29.69R FOG     WCI  30
SIREN          CLOUDY    36  34  92 SE5       29.66S FOG     WCI  32
CUMBERLAND     CLOUDY    34  32  93 E8        29.65S FOG     WCI  27
RICE LAKE      CLOUDY    36  32  87 E9        29.67F FOG     WCI  29
CHETEK         CLOUDY    36  33  90 E9        29.66F FOG     WCI  29
LADYSMITH      CLOUDY    36  33  88 SE10      29.71S FOG     WCI  29
EAU CLAIRE     CLOUDY    38  33  82 E9        29.65F WCI  31
MENOMONIE      CLOUDY    38  35  88 E10       29.65S FOG     WCI  31
NEW RICHMOND   CLOUDY    37  36  96 E9        29.63S FOG     WCI  30
OSCEOLA        DRIZZLE   37  37 100 E9        29.65S WCI  30
$$

WIZ003>005-009-010-017-018-222300-
NORTH CENTRAL WISCONSIN

CITY           SKY/WX    TMP DP  RH WIND       PRES   REMARKS
MANITOWISH WTR CLOUDY    33  33 100 SE7       29.73R FOG     WCI  26
ARBOR VITAE    CLOUDY    36  34  94 SE9       29.74R FOG     WCI  29
WOODRUFF       CLOUDY    36  34  94 SE9       29.74R FOG     WCI  29
RHINELANDER    CLOUDY    32  31  96 E10       29.74F FOG     WCI  24
EAGLE RIVER    CLOUDY    33  33  99 SE7       29.75S FOG     WCI  27
LAND O LAKES   CLOUDY    33  33  98 SE9       29.77R FOG     WCI  26
PHILLIPS       CLOUDY    33  32  94 SE7       29.71S FOG     WCI  27
TOMAHAWK       CLOUDY    32  31  96 CALM      29.73F FOG
MEDFORD        CLOUDY    33  31  92 E8        29.70S FOG     WCI  26
MERRILL        CLOUDY    34  32  94 E6        29.73S FOG     WCI  29
$$

WIZ029-030-035-036-043>047-222300-
CENTRAL WISCONSIN

CITY           SKY/WX    TMP DP  RH WIND       PRES   REMARKS
WAUSAU         CLOUDY    34  31  88 E13G20    29.71S FOG     WCI  25
MOSINEE        CLOUDY    34  34 100 E6        29.72F FOG     WCI  29
MARSHFIELD     CLOUDY    35  30  82 E10       29.69F HAZE    WCI  27
STEVENS POINT  CLOUDY    33  30  88 E12       29.73S FOG     WCI  25
WAUPACA        CLOUDY    38  32  79 E9G17     29.76S HAZE    WCI  31
WAUTOMA        NOT AVBL
WISC RAPIDS    CLOUDY    37  30  75 E10       29.71F WCI  30
CAMP DOUGLAS   NOT AVBL
$$

WIZ011>013-019>022-031-037>040-048>050-222300-
NORTHEAST WISCONSIN

CITY           SKY/WX    TMP DP  RH WIND       PRES   REMARKS
ANTIGO         CLOUDY    32  31  98 SE15      29.75S FOG     WCI  22
SHAWANO        CLOUDY    37  32  81 E7        29.79F WCI  32
OCONTO         CLOUDY    34  32  91 E5        29.82F WCI  30
STURGEON BAY   CLOUDY    36  28  75 SE7       29.84F WCI  30
GREEN BAY      CLOUDY    36  32  85 E8        29.79F FOG     WCI  30
MANITOWOC      NOT AVBL
APPLETON       CLOUDY    36  30  80 E9        29.77S FOG     WCI  29
CLINTONVILLE   CLOUDY    36  32  87 E8        29.78S HAZE    WCI  29
OSHKOSH        LGT SNOW  34  31  88 E9        29.75F FOG     WCI  27
$$

WIZ032>034-041-042-053>061-222300-
SOUTHWEST WISCONSIN

CITY           SKY/WX    TMP DP  RH WIND       PRES   REMARKS
LA CROSSE      LGT RAIN  39  34  82 SE9       29.63F WCI  33
SPARTA         CLOUDY    37  33  85 E9G17     29.66F WCI  30
VIROQUA        CLOUDY    34  34 100 E13       29.61F WCI  25
BOSCOBEL       LGT RAIN  35  33  92 NE7       29.62F FOG     WCI  29
PRAIRIE DU CHI LGT RAIN  36  33  88 E8        29.60S WCI  30
PLATTEVILLE    CLOUDY    35  34  96 E14       29.61S WCI  26
$$

WIZ056-057-062-063-064-067-068-222300-
SOUTH CENTRAL WISCONSIN

CITY           SKY/WX    TMP DP  RH WIND       PRES   REMARKS
REEDSBURG      DRIZZLE   33  33  96 E7        29.67F WCI  27
BARABOO/DELLS  RAIN      33  32  95 E8        29.67F WCI  26
LONE ROCK      LGT RAIN  39  33  79 E13       29.64F WCI  31
MINERAL POINT  LGT RAIN  36  34  93 E13G21    29.60S WCI  27
MADISON        LGT RAIN  36  33  89 E14       29.66F FOG     WCI  27
MIDDLETON      CLOUDY    36  36  98 E10       29.66F WCI  29
WATERTOWN      LGT RAIN  34  34 100 E12       29.69F WCI  26
MONROE         RAIN      34  34 100 E14G20    29.61F WCI  24
JANESVILLE     DRIZZLE   37  36  93 E12G17    29.64F FOG     WCI  30
$$

WIZ051-052-058>065-066-070>072-222300-
SOUTHEAST WISCONSIN

CITY           SKY/WX    TMP DP  RH WIND       PRES   REMARKS
MILWAUKEE      LGT RAIN  36  33  89 SE15      29.75F FOG     WCI  27
WAUKESHA       NOT AVBL
MILWAUKEE/TIMM LGT RAIN  36  32  87 E9        29.75F FOG     WCI  29
RACINE         LGT RAIN  36  34  92 E14       29.76S FOG     WCI  27
BURLINGTON     MIX PCPN  33  33  98 E12       29.71F WCI  25
KENOSHA        LGT RAIN  36  35  96 E15       29.72F FOG     WCI  27
FOND DU LAC    LGT SNOW  35  32  88 E9        29.74F FOG     WCI  28
SHEBOYGAN      LGT RAIN  35  33  92 SE9       29.78F FOG     WCI  28
WEST BEND      MIX PCPN  32  32 100 E8        29.75F WCI  25
JUNEAU         LGT RAIN  34  32  94 E12       29.72F WCI  25
$$

LSZ147-162-222300-
LAKE SUPERIOR

STATION/POSITION TIME  TEMP    WIND        PRES    WAVE
                       AIR SEA DIR/SP/G            HT/PER
                 (UTC) (F)     (DEG/KT/KT) (MB)    (FT/S)
DEVILS ISLAND    2100   36     120/  2/  3 1007.7R
PORT WING        2100   38     110/  2/  5 1006.8R
SAXON HARBOR     2100   39      CALM  /  6 1006.8S
$$

LMZ867-665-643>646-222300-
LAKE MICHIGAN

STATION/POSITION TIME  TEMP    WIND        PRES    WAVE
                       AIR SEA DIR/SP/G            HT/PER
                 (UTC) (F)     (DEG/KT/KT) (MB)    (FT/S)
CHAMBERS ISLAND  2100   36     120/  3/  6 1011.5S
NORTHPORT PIER   2100   36     120/ 13/ 15 1011.2F
SISTER BAY       2113          150/ 10/ 13   N/A
ALGOMA LAKESHORE 2115          160/ 19/ 22   N/A
KEWAUNEE LAKESHO 2100   37     140/ 13/ 18 1009.3F
SHEBOYGAN LAKESH 2100   37 38  130/ 21/ 22 1009.5F
PORT WASHINGTON  2100   37     120/ 13/ 16 1009.1
MILWAUKEE LAKESH 2115   37     110/ 15/ 17   N/A
KENOSHA   LAKESH 2100   36     120/ 15/ 17 1007.5F
$$

TC  - TEMPERATURE IN CELSIUS
VSB - VISIBILITY IN STATUTE MILES
WCI - WIND CHILL INDEX
HX  - HEAT INDEX




USA.gov is the U.S. government's official web portal to all federal, state and local government web resources and services.